TimeCDT,TemperatureF,Dew PointF,Humidity,Sea Level PressureIn,VisibilityMPH,Wind Direction,Wind SpeedMPH,Gust SpeedMPH,PrecipitationIn,Events,Conditions,WindDirDegrees,DateUTC
12:53 AM,64.0,62.1,93,29.97,6.0,SE,3.5,-,N/A,,Clear,130,2013-04-29 05:53:00
1:40 AM,62.6,60.8,94,29.93,1.5,Calm,Calm,-,N/A,,Clear,0,2013-04-29 06:40:00
1:53 AM,63.0,61.0,93,29.95,1.0,Calm,Calm,-,N/A,,Mist,0,2013-04-29 06:53:00
1:57 AM,62.6,60.8,94,29.93,0.8,NNE,3.5,-,N/A,,Mist,30,2013-04-29 06:57:00
2:02 AM,62.6,60.8,94,29.93,1.2,Calm,Calm,-,N/A,,Scattered Clouds,0,2013-04-29 07:02:00
2:07 AM,60.8,59.0,94,29.93,3.0,Calm,Calm,-,N/A,,Scattered Clouds,0,2013-04-29 07:07:00
2:53 AM,62.1,60.1,93,29.94,6.0,Calm,Calm,-,N/A,,Clear,0,2013-04-29 07:53:00
3:05 AM,62.6,60.8,94,29.91,1.8,Calm,Calm,-,N/A,,Scattered Clouds,0,2013-04-29 08:05:00
3:14 AM,62.6,60.8,94,29.91,3.0,Calm,Calm,-,N/A,,Scattered Clouds,0,2013-04-29 08:14:00
3:25 AM,60.8,59.0,94,29.91,1.5,Calm,Calm,-,N/A,,Mostly Cloudy,0,2013-04-29 08:25:00
3:32 AM,62.6,60.8,94,29.91,0.5,Calm,Calm,-,N/A,Fog,Fog,0,2013-04-29 08:32:00
3:53 AM,64.0,62.1,93,29.93,0.2,ESE,3.5,-,N/A,Fog,Fog,120,2013-04-29 08:53:00
4:13 AM,64.4,62.6,94,29.91,1.0,Calm,Calm,-,N/A,,Overcast,0,2013-04-29 09:13:00
4:17 AM,64.4,64.4,100,29.91,3.0,ESE,3.5,-,N/A,,Overcast,110,2013-04-29 09:17:00
4:33 AM,64.4,62.6,94,29.90,6.0,Calm,Calm,-,N/A,,Scattered Clouds,0,2013-04-29 09:33:00
4:53 AM,63.0,61.0,93,29.93,5.0,SE,3.5,-,N/A,,Clear,130,2013-04-29 09:53:00
5:18 AM,62.6,60.8,94,29.91,5.0,Calm,Calm,-,N/A,,Scattered Clouds,0,2013-04-29 10:18:00
5:26 AM,62.6,60.8,94,29.91,2.5,Calm,Calm,-,N/A,,Mostly Cloudy,0,2013-04-29 10:26:00
5:33 AM,62.6,60.8,94,29.91,0.8,East,3.5,-,N/A,,Mist,100,2013-04-29 10:33:00
5:49 AM,64.4,62.6,94,29.92,0.2,East,3.5,-,N/A,Fog,Fog,100,2013-04-29 10:49:00
5:53 AM,64.0,63.0,96,29.94,0.2,ESE,3.5,-,N/A,Fog,Fog,110,2013-04-29 10:53:00
6:15 AM,64.4,62.6,94,29.92,0.2,Calm,Calm,-,N/A,Fog,Fog,0,2013-04-29 11:15:00
6:53 AM,64.0,63.0,96,29.96,0.2,Calm,Calm,-,N/A,Fog,Fog,0,2013-04-29 11:53:00
7:18 AM,64.4,62.6,94,29.94,0.2,Calm,Calm,-,N/A,Fog,Fog,0,2013-04-29 12:18:00
7:49 AM,64.4,64.4,100,29.94,0.2,East,3.5,-,N/A,Fog,Fog,80,2013-04-29 12:49:00
7:53 AM,64.9,64.0,97,29.97,0.2,Calm,Calm,-,N/A,Fog,Fog,0,2013-04-29 12:53:00
8:00 AM,64.4,64.4,100,29.95,0.2,ENE,3.5,-,N/A,Fog,Fog,60,2013-04-29 13:00:00
8:53 AM,66.9,66.0,97,29.98,0.5,ENE,4.6,-,N/A,Fog,Fog,60,2013-04-29 13:53:00
9:25 AM,69.8,66.2,88,29.96,1.8,ENE,3.5,-,N/A,,Overcast,60,2013-04-29 14:25:00
9:30 AM,69.8,66.2,88,29.96,3.0,ENE,4.6,-,N/A,,Overcast,70,2013-04-29 14:30:00
9:53 AM,69.1,66.9,93,29.99,8.0,ENE,3.5,-,N/A,,Overcast,60,2013-04-29 14:53:00
10:21 AM,73.4,66.2,78,29.97,10.0,East,3.5,-,N/A,,Overcast,80,2013-04-29 15:21:00
10:53 AM,75.0,68.0,79,30.00,10.0,ESE,6.9,-,N/A,,Mostly Cloudy,110,2013-04-29 15:53:00
11:00 AM,73.4,66.2,78,29.97,10.0,SE,4.6,-,N/A,,Mostly Cloudy,130,2013-04-29 16:00:00
11:09 AM,75.2,66.2,73,29.97,10.0,SSE,4.6,-,N/A,,Mostly Cloudy,160,2013-04-29 16:09:00
11:53 AM,78.1,66.0,66,29.99,10.0,East,6.9,-,N/A,,Mostly Cloudy,100,2013-04-29 16:53:00
12:08 PM,78.8,66.2,65,29.96,10.0,ESE,8.1,-,N/A,,Scattered Clouds,110,2013-04-29 17:08:00
12:53 PM,80.1,64.9,60,29.97,10.0,SSE,6.9,-,N/A,,Partly Cloudy,150,2013-04-29 17:53:00
1:26 PM,78.8,62.6,57,29.94,10.0,SE,4.6,-,N/A,Thunderstorm,Scattered Clouds,140,2013-04-29 18:26:00
1:41 PM,78.8,66.2,65,29.93,10.0,WSW,6.9,-,N/A,,Scattered Clouds,250,2013-04-29 18:41:00
1:53 PM,78.1,66.0,66,29.95,10.0,SW,4.6,-,N/A,,Mostly Cloudy,220,2013-04-29 18:53:00
2:40 PM,71.6,66.2,83,29.93,2.5,South,9.2,-,0.08,Rain-Thunderstorm,Heavy Thunderstorms and Rain,180,2013-04-29 19:40:00
2:53 PM,72.0,68.0,87,29.95,7.0,SW,3.5,-,0.13,Rain-Thunderstorm,Heavy Thunderstorms and Rain,230,2013-04-29 19:53:00
3:01 PM,73.4,69.8,88,29.91,7.0,Calm,Calm,-,0.03,Rain-Thunderstorm,Light Thunderstorms and Rain,0,2013-04-29 20:01:00
3:19 PM,75.2,64.4,69,29.90,7.0,South,4.6,-,0.03,Thunderstorm,Mostly Cloudy,170,2013-04-29 20:19:00
3:40 PM,78.8,62.6,57,29.90,7.0,SE,3.5,-,0.03,,Clear,130,2013-04-29 20:40:00
3:51 PM,78.8,60.8,54,29.90,7.0,SE,9.2,-,0.03,Thunderstorm,Clear,130,2013-04-29 20:51:00
3:53 PM,79.0,61.0,54,29.92,7.0,SE,10.4,-,0.03,Thunderstorm,Clear,130,2013-04-29 20:53:00
4:11 PM,78.8,60.8,54,29.90,10.0,ESE,9.2,-,N/A,,Clear,120,2013-04-29 21:11:00
4:20 PM,75.2,64.4,69,29.89,2.5,ENE,11.5,18.4,N/A,Thunderstorm,Haze,60,2013-04-29 21:20:00
4:29 PM,75.2,64.4,69,29.89,10.0,ENE,12.7,-,N/A,Thunderstorm,Clear,70,2013-04-29 21:29:00
4:41 PM,75.2,62.6,65,29.89,10.0,ENE,12.7,-,N/A,,Clear,60,2013-04-29 21:41:00
4:53 PM,77.0,63.0,62,29.91,10.0,ENE,13.8,-,N/A,,Clear,60,2013-04-29 21:53:00
5:53 PM,79.0,63.0,58,29.88,10.0,SSE,3.5,-,N/A,,Clear,160,2013-04-29 22:53:00
6:53 PM,75.9,64.0,67,29.88,10.0,ESE,8.1,-,N/A,,Partly Cloudy,120,2013-04-29 23:53:00
7:53 PM,73.0,63.0,71,29.88,10.0,SE,3.5,-,N/A,,Clear,140,2013-04-30 00:53:00
8:53 PM,71.1,63.0,75,29.89,10.0,South,3.5,-,N/A,,Clear,180,2013-04-30 01:53:00
9:53 PM,70.0,66.0,87,29.91,10.0,Calm,Calm,-,N/A,,Clear,0,2013-04-30 02:53:00
10:53 PM,66.9,64.0,90,29.91,10.0,Calm,Calm,-,N/A,,Clear,0,2013-04-30 03:53:00
11:53 PM,69.1,64.9,87,29.90,10.0,Calm,Calm,-,N/A,,Clear,0,2013-04-30 04:53:00